Location: ?????????
(48.5554°N, 37.8161°E)
Time: 06:42:14
(UTC+00:00)

Daily predictions for brighter satellites

Satellite Brightness Start Highest point End
(mag) Time Altitude Azimuth Time Altitude Azimuth Time Altitude Azimuth
ATLAS 5 CENTAUR R/B 2.4 17:20:57 10° NW 17:26:34 89° NE 17:33:09 10° SE
Cosmos 1697 Rocket 3.1 17:28:20 10° NNW 17:33:48 50° NE 17:39:14 10° SE
MetOp-A 4.3 17:28:54 10° S 17:34:16 78° WSW 17:39:40 10° NNW
SL-4 R/B 3.2 17:31:34 10° S 17:34:27 19° SE 17:37:11 10° E
Cosmos 1833 Rocket 3.3 17:30:23 10° SSE 17:35:22 34° ESE 17:40:23 10° NE
Cosmos 1727 Rocket 4.1 17:31:00 10° N 17:37:24 89° ENE 17:43:46 10° S
Cosmos 2228 Rocket 3.2 17:35:12 10° N 17:39:40 83° W 17:44:04 10° S
SPOT 3 Rocket 3.6 17:35:55 10° SSE 17:41:09 86° ENE 17:46:23 10° NNW
Cosmos 2251 Rocket 3.7 17:38:14 10° SSW 17:43:30 82° WNW 17:48:50 10° NNE
Cosmos 1633 Rocket 4.2 17:41:39 10° SE 17:45:15 25° E 17:48:51 10° NNE
Cosmos 1656 3.7 17:40:16 10° NNW 17:45:46 83° WSW 17:51:18 10° SSE
Cosmos 389 Rocket 2.4 17:42:56 10° N 17:46:23 75° ENE 17:49:50 10° SSE
Cosmos 1812 2.7 17:43:12 10° N 17:47:02 64° ENE 17:50:51 10° SSE
Cosmos 972 Rocket 4.3 17:44:47 10° NNW 17:49:47 64° WSW 17:54:36 10° S
IRIDIUM 104 4.3 17:46:25 10° S 17:51:37 74° E 17:56:50 10° N
Cosmos 1707 Rocket 3.8 17:50:09 10° N 17:54:25 52° ENE 17:58:34 10° SSE
Cosmos 220 Rocket 3.9 17:50:56 10° NNW 17:55:10 86° ENE 17:59:24 10° SSE
Resurs 01 Rocket 1.6 17:50:53 10° SSE 17:55:18 84° ENE 17:59:46 10° NNW
BREEZE-M (TANK) 4.3 17:51:08 10° WSW 17:55:32 85° SSE 18:15:31 10° ENE
Landsat 7 4.4 17:51:13 11° SE 17:55:34 43° ENE 18:00:04 10° N
Intercosmos 25 3.3 17:53:34 10° N 17:58:21 78° ENE 18:01:45 10° SSE
BREEZE M DEB (TANK) 4.5 17:53:35 10° WSW 17:58:32 90° NNW 18:21:55 10° E
USA 267 3.3 17:53:47 10° ENE 18:00:16 61° SE 18:06:44 10° SW
Cosmos 2360 4.4 17:54:50 10° NNW 18:00:33 61° ENE 18:05:31 14° SE
IRIDIUM 114 4.3 17:55:32 10° S 18:00:45 88° E 18:06:01 10° N
Cosmos 614 Rocket 3.9 17:57:30 10° S 18:02:36 67° ESE 18:07:47 10° NNE
Cosmos 1441 Rocket 3.1 17:59:52 10° S 18:03:39 76° E 18:07:26 10° NNE
FALCON 9 DEB 4.4 18:02:18 10° S 18:05:01 21° SE 18:07:45 10° E
Cosmos 1821 Rocket 3.9 18:01:50 10° S 18:07:56 78° E 18:14:11 10° NNE
IGS 5A 3.7 18:04:39 14° SE 18:08:03 52° ENE 18:12:06 10° N
IRIDIUM 103 4.5 18:04:41 10° S 18:09:54 78° W 18:15:09 10° N
GP-B 3.6 18:08:18 10° NNE 18:12:32 41° E 18:15:46 16° SSE
COSMOS 2406 3.2 18:07:03 10° SSW 18:12:48 88° ESE 18:18:34 10° NNE
SL-16 R/B 3.8 18:11:36 10° N 18:16:09 24° NE 18:20:35 10° E
CZ-2C R/B 4.2 18:12:54 10° N 18:17:30 63° WNW 18:21:59 10° SSW
Cosmos 921 Rocket 4.1 18:15:05 10° N 18:18:52 30° ENE 18:21:16 18° ESE
ERS-1 Rocket 3.6 18:16:08 17° SE 18:19:38 41° ENE 18:24:21 10° N
Cosmos 1862 Rocket 3.9 18:16:35 10° N 18:20:57 49° ENE 18:23:51 19° SE
Cosmos 2369 3.8 18:15:41 10° NNW 18:21:28 86° WSW 18:26:07 16° SSE
Lacrosse 5 3.0 18:17:28 10° NW 18:22:16 40° NNE 18:27:03 10° E
Shenzhou-11 Module 3.4 18:24:22 10° SW 18:25:46 17° SSW 18:25:46 17° SSW
Cosmos 1818 4.0 18:22:12 10° NW 18:27:34 59° WSW 18:31:46 16° SSE
Sich 1 3.3 18:23:31 10° SSW 18:27:56 72° W 18:32:24 10° N
Cosmos 2123 Rocket 4.0 18:21:47 10° N 18:28:01 77° E 18:33:23 15° SSE
Cosmos 2082 Rocket 2.3 18:22:39 10° S 18:28:08 52° ESE 18:33:39 10° NE
Meteor 2-20 4.5 18:24:12 10° N 18:30:25 90° SW 18:36:01 13° S
Cosmos 2278 3.7 18:25:03 10° NNW 18:30:49 79° ENE 18:34:50 20° SSE
Cosmos 1535 Rocket 4.4 18:24:57 10° S 18:31:03 69° E 18:37:07 10° NNE
Cosmos 1954 Rocket 4.4 18:26:42 11° S 18:31:35 44° ESE 18:36:37 10° NE
Spot 2 Rocket 3.5 18:31:13 16° SSE 18:35:24 86° WSW 18:40:33 10° NNW
USA 234 3.3 18:31:25 18° SE 18:36:28 85° SW 18:43:03 10° NW
Cosmos 2322 Rocket 3.6 18:33:55 10° NNW 18:38:46 27° NE 18:42:37 14° E
Cosmos 1605 Rocket 4.1 18:36:30 16° SSE 18:41:24 56° E 18:47:20 10° NNE
Cosmos 1190 Rocket 4.0 18:37:14 10° SSW 18:42:31 86° ESE 18:47:52 10° NNE
Terra 2.4 18:42:15 24° SE 18:44:39 43° ENE 18:49:10 10° N
CARTOSAT-1 3.6 18:42:57 26° SSE 18:45:16 64° ENE 18:49:34 10° N
Cosmos 407 Rocket 3.7 18:40:13 10° SSW 18:45:33 76° WNW 18:50:53 10° NNE
Meteor 1-20 Rocket 4.4 18:41:21 17° S 18:45:46 57° E 18:51:30 10° NNE
Meteor 1-4 Rocket 2.8 18:42:52 10° NNW 18:46:20 62° W 18:48:15 24° S
Meteor 1-27 Rocket 4.5 18:42:57 10° NNW 18:48:41 54° W 18:54:26 10° S
Cosmos 1933 Rocket 4.0 18:47:09 28° SE 18:48:55 42° E 18:53:07 10° NNE
Cosmos 1666 Rocket 3.9 18:45:06 10° SSW 18:49:22 64° WNW 18:53:42 10° N
Cosmos 1238 Rocket 2.5 18:49:11 41° ESE 18:49:29 43° E 18:52:19 10° NNE
Cosmos 1184 Rocket 2.7 18:48:07 31° S 18:49:32 73° E 18:52:51 10° NNE
USA 238 DEB 3.9 18:44:56 10° S 18:51:11 46° ESE 18:57:40 10° NE
USA 238 3.9 18:45:04 10° S 18:51:17 46° ESE 18:57:46 10° NE
Cosmos 2360 Rocket 4.0 18:48:29 10° N 18:52:50 22° NE 18:56:50 11° E
Okean 1 3.7 18:50:30 10° N 18:54:26 49° ENE 18:55:47 34° SE
Meteor 1-19 Rocket 4.4 18:51:54 10° N 18:57:13 54° ENE 18:59:51 29° SE
Cosmos 1602 4.1 18:56:27 36° SE 18:57:27 45° E 19:01:13 10° NNE
SPOT 5 2.5 18:56:40 31° SSE 18:58:39 75° ENE 19:03:01 10° N
Cosmos 1437 Rocket 3.5 18:55:39 10° N 18:59:13 36° ENE 19:00:03 32° ESE
Cosmos 1980 Rocket 2.3 18:56:25 10° NNW 19:02:05 70° WSW 19:05:19 26° SSE
Iridium 4 Rocket 4.4 19:02:12 23° E 19:02:49 23° E 19:06:12 10° NNE
SPOT 1/Viking Rocket 3.9 18:59:14 20° S 19:02:54 62° WSW 19:08:06 10° NNW
CZ-4B DEB 4.5 19:02:10 39° S 19:03:15 71° WSW 19:06:36 10° NNW
Cosmos 2242 Rocket 3.5 19:03:53 10° N 19:08:21 74° E 19:09:59 38° SSE
Cosmos 1703 Rocket 3.7 19:04:20 10° N 19:08:38 54° ENE 19:09:56 38° SE
Cosmos 1763 Rocket 3.8 19:03:33 10° NNW 19:08:49 56° ENE 19:11:07 32° SE
ATLAS 5 CENTAUR R/B 4.2 19:06:27 10° WNW 19:10:53 22° WSW 19:15:44 10° SSW
Cosmos 1140 Rocket 4.0 19:06:17 10° SW 19:11:28 60° WNW 19:16:41 10° NNE
Cosmos 2333 Rocket 4.5 19:08:49 10° N 19:12:23 16° NE 19:15:56 10° ENE
SL-4 R/B 1.6 19:09:47 10° WSW 19:13:39 77° SSE 19:15:56 21° ENE
Genesis I 3.6 19:11:08 10° NW 19:14:54 51° WSW 19:15:51 40° S
Cosmos 1500 4.4 19:15:26 26° E 19:15:26 26° E 19:18:15 10° NNE
Cosmos 405 Rocket 2.5 19:14:15 50° S 19:15:05 74° E 19:18:49 10° NNE
USA 32 4.3 19:12:32 17° SSW 19:16:39 68° W 19:21:53 10° N
Cosmos 1697 Rocket 4.1 19:12:41 10° NW 19:17:32 30° WSW 19:21:20 15° SSW
Cosmos 1833 Rocket 3.8 19:13:47 10° SW 19:19:09 45° NW 19:24:35 10° NNE
CENTAUR R/B 2.8 19:17:41 30° SSE 19:19:59 42° ESE 19:26:26 10° NE
Cosmos 1153 Rocket 4.4 19:18:42 27° S 19:22:09 73° E 19:28:18 10° NNE
Cosmos 1633 Rocket 4.5 19:18:45 10° SW 19:22:51 37° WNW 19:26:59 10° N
Meteor 1-18 Rocket 4.2 19:19:08 10° NNW 19:24:46 84° W 19:27:21 34° S
Cosmos 1867 3.6 19:21:09 10° SW 19:26:36 84° NW 19:32:06 10° NE
Okean 1-7 2.9 19:26:16 10° N 19:30:39 82° E 19:31:38 53° SSE
Resurs 01 Rocket 4.3 19:30:48 10° WSW 19:32:25 12° W 19:34:02 10° WNW
Meteor 2-4 Rocket 3.7 19:29:11 10° N 19:34:53 68° ENE 19:36:49 41° SE
Cosmos 1850 Rocket 4.0 19:34:03 41° SSE 19:35:45 61° ESE 19:40:59 10° NNE
Okean 3 4.1 19:32:55 10° N 19:36:59 40° ENE 19:37:28 39° E
FALCON 9 DEB 3.1 19:38:14 10° WSW 19:41:44 81° NNW 19:41:54 77° NNE
Cosmos 1515 3.8 19:39:10 10° NNW 19:42:59 67° W 19:43:28 59° SW
Cosmos 44 3.8 19:38:16 10° NNW 19:43:03 53° NE 19:44:45 36° E
USA 267 3.8 19:36:54 10° NE 19:43:19 61° NNW 19:49:44 10° W
SL-27 R/B 3.8 19:46:05 28° NE 19:46:05 28° NE 19:47:56 10° NNE
NOSS 3-2 (A) 3.4 19:40:01 10° SW 19:45:45 87° NW 19:52:26 10° NE
Spot 4 4.4 19:48:18 39° ESE 19:49:19 45° ENE 19:53:56 10° N
NOSS 3-2 (C) 3.3 19:48:31 29° SSW 19:51:35 69° SE 19:58:08 10° NE
Cosmos 921 Rocket 4.3 19:53:26 10° NW 19:57:06 29° W 19:58:03 26° SW
ERS-1 Rocket 4.4 19:56:09 20° SW 19:58:33 30° W 20:02:57 10° NW
Cosmos 841 Rocket 3.4 19:55:31 10° NNW 20:00:46 79° ENE 20:01:56 55° SE
SL-16 R/B 2.2 19:55:13 10° NNW 20:00:54 78° WSW 20:02:26 50° S
Cosmos 540 Rocket 3.4 19:57:17 10° NNW 20:02:29 78° ENE 20:03:34 56° SE
Lacrosse 5 1.7 20:00:30 10° NW 20:05:36 77° SW 20:06:22 62° SSE
Tsikada Rocket 4.3 20:01:57 10° N 20:08:14 56° ENE 20:10:05 42° SE
Cosmos 1741 Rocket 4.1 20:08:05 38° SW 20:10:09 76° WNW 20:15:28 10° NNE
Cosmos 1570 Rocket 4.0 20:06:21 10° NNW 20:11:42 84° WSW 20:12:46 59° S
Cosmos 2219 Rocket 3.7 20:07:08 10° NNW 20:12:05 29° NE 20:14:56 20° E
Cosmos 2082 Rocket 3.9 20:07:24 10° WSW 20:12:30 33° NW 20:17:36 10° NNE
Cosmos 2208 Rocket 3.9 20:08:25 10° NNW 20:13:44 86° ENE 20:14:40 61° SSE
Cosmos 1814 Rocket 3.9 20:09:10 10° NNW 20:14:25 83° ENE 20:15:20 61° SE
Cosmos 2237 4.2 20:11:27 10° NNW 20:17:11 74° ENE 20:18:35 52° SE
USA 234 4.3 20:18:46 27° SSW 20:20:04 29° SW 20:25:36 10° WNW
Cosmos 2084 Rocket 4.0 20:22:33 47° ENE 20:22:33 47° ENE 20:25:47 10° NE
Terra 3.4 20:21:08 22° WSW 20:22:34 26° W 20:26:34 10° NW
Cosmos 2322 Rocket 2.3 20:17:38 10° NNW 20:23:17 65° WSW 20:24:25 53° SSW
Cosmos 2100 Rocket 4.2 20:20:53 35° SSW 20:23:33 65° WNW 20:29:41 10° N
Meteor 1-11 Rocket 3.6 20:26:40 59° S 20:27:46 79° E 20:33:31 10° NNE
EO 1 Del DPAF 4.0 20:27:08 10° NNE 20:29:58 46° NE 20:29:58 46° NE
ATLAS 3B R/B 2.7 20:34:00 51° SSE 20:34:51 54° ESE 20:41:17 10° NE
Helios 1A 4.4 20:36:34 28° ENE 20:36:49 28° ENE 20:40:25 10° N
Cosmos 2360 Rocket 2.1 20:31:54 10° NNW 20:37:37 88° WSW 20:38:35 63° SSE
COSMOS 2428 3.8 20:33:00 10° NNW 20:38:21 38° NE 20:40:38 27° E
Cosmos 1242 Rocket 3.4 20:35:22 10° N 20:38:07 48° N 20:38:07 48° N
Cosmos 2173 Rocket 4.5 20:36:35 32° SW 20:39:17 54° WNW 20:45:18 10° N
Geosat 4.4 20:40:38 46° SW 20:40:59 46° WSW 20:45:50 10° NW
USA 238 DEB 4.4 20:35:36 10° WSW 20:42:06 52° NW 20:48:55 10° NE
USA 238 4.4 20:35:42 10° WSW 20:42:12 52° NW 20:49:02 10° NE
Iridium 4 Rocket 4.2 20:41:58 33° W 20:42:38 35° W 20:46:34 10° NNW
Cosmos 1725 Rocket 4.0 20:42:39 51° SSW 20:44:24 84° W 20:50:47 10° N
Nimbus 7 Rocket 4.3 20:41:33 10° NNE 20:47:25 67° ESE 20:48:17 58° SSE
SL-08 R/B 4.4 20:47:39 50° SSW 20:49:17 75° W 20:55:24 10° N
ALOS 2 2.5 20:50:20 82° NNE 20:50:20 82° NNE 20:54:35 10° NNW
SL-4 R/B 3.5 20:49:46 10° W 20:51:35 25° WNW 20:51:35 25° WNW
BREEZE-M DEB (TANK) 4.0 20:49:38 10° WNW 20:54:06 83° SSW 21:13:11 10° ESE
MOS 1-B Rocket 4.3 20:48:37 10° N 20:54:13 55° WNW 20:56:13 37° SW
Cosmos 1674 Rocket 3.6 20:52:08 10° NNW 20:56:07 74° NW 20:56:07 74° NW
Cosmos 2016 Rocket 4.4 20:55:14 38° SW 20:57:28 58° WNW 21:03:47 10° N
Cosmos 2333 Rocket 2.5 20:52:12 10° NNW 20:57:56 60° ENE 20:59:21 47° ESE
Cosmos 2061 Rocket 4.4 20:56:26 39° SW 20:58:33 57° WNW 21:04:40 10° N
Cosmos 1536 3.4 20:58:57 52° NW 20:58:57 52° NW 21:02:29 10° N
Cosmos 2237 Rocket 3.9 20:57:21 10° NNW 21:02:06 26° NE 21:05:46 14° E
Cosmos 1743 3.6 21:03:12 45° NE 21:03:12 45° NE 21:06:06 10° NNE
Cosmos 1666 3.9 21:02:40 37° WNW 21:02:40 37° WNW 21:05:47 10° N
Cosmos 1271 Rocket 3.5 21:02:46 10° N 21:05:39 49° N 21:05:39 49° N
Lacrosse 4 Rocket 2.4 21:09:06 38° ENE 21:09:06 38° ENE 21:11:57 10° NE
Meteor 2-11 Rocket 4.4 21:07:18 60° SSE 21:08:16 71° E 21:14:21 10° NNE
CENTAUR R/B 3.3 21:04:46 12° WSW 21:10:30 53° NW 21:17:44 10° NE
Cosmos 1066 Rocket 4.4 21:05:30 10° NNW 21:11:08 57° W 21:11:52 53° SW
Meteor 1-23 Rocket 4.5 21:06:52 10° NNW 21:12:36 59° W 21:13:27 53° SW
Cosmos 1733 Rocket 3.7 21:13:55 47° WNW 21:13:56 47° WNW 21:18:13 10° N
Thor Agena Rocket 4.2 21:10:22 10° N 21:15:13 47° WNW 21:16:25 40° WSW
Cosmos 836 Rocket 4.3 21:12:18 10° NNW 21:17:33 88° ENE 21:17:49 81° SSE
Cosmos 44 Rocket 4.0 21:12:48 10° NNW 21:17:40 52° NE 21:18:51 42° E
Cosmos 968 Rocket 3.5 21:19:01 66° E 21:19:01 66° E 21:24:00 10° NNE
ATLAS 5 CENTAUR R/B 3.5 21:21:13 10° WNW 21:23:25 33° WSW 21:23:25 33° WSW
Cosmos 1975 3.7 21:26:37 44° NE 21:26:37 44° NE 21:29:41 10° NNE
USA 267 4.4 21:19:40 10° ENE 21:25:45 43° N 21:31:51 10° WNW
Cosmos 1354 Rocket 4.5 21:26:46 47° ESE 21:26:46 47° ESE 21:31:47 10° NNE
SL-24 DEB 4.2 21:22:04 10° N 21:26:50 88° N 21:26:50 88° N
Cosmos 2233 Rocket 4.3 21:29:56 46° SW 21:31:35 59° WNW 21:37:52 10° N
Cosmos 1464 Rocket 4.1 21:30:54 52° SE 21:32:00 60° E 21:38:07 10° NNE
Cosmos 1782 Rocket 4.0 21:33:28 55° ENE 21:33:28 55° ENE 21:37:12 10° NNE
BREEZE-M DEB (TANK) 4.1 21:27:21 10° W 21:35:19 49° WSW 21:35:19 49° WSW
Cosmos 1908 Rocket 3.9 21:41:24 61° NW 21:41:24 61° NW 21:45:25 10° N
Cosmos 2227 Rocket 4.0 21:40:53 18° ESE 21:41:15 18° E 21:44:55 10° ENE
Cosmos 1707 4.1 21:37:50 10° N 21:41:05 34° ENE 21:41:05 34° ENE
Meteor 1-21 4.2 21:36:18 10° N 21:42:09 80° ENE 21:43:02 64° SSE
Cosmos 1842 4.0 21:39:21 10° N 21:42:24 52° NNW 21:42:24 52° NNW
CZ-4 R/B 4.3 21:38:54 10° NNE 21:43:47 52° E 21:43:49 52° ESE
SL-16 R/B 4.3 21:41:33 10° WNW 21:44:02 13° W 21:44:17 13° W
Helios 1B rocket 3.6 21:42:24 10° NNE 21:45:30 34° ENE 21:45:30 34° ENE
Cosmos 2322 4.0 21:42:08 10° NW 21:47:36 49° WSW 21:47:36 49° WSW
Lacrosse 5 4.1 21:44:39 10° W 21:45:32 13° W 21:45:32 13° W
Nadezhda 4 Rocket 4.1 21:45:39 10° N 21:51:58 69° ENE 21:53:31 51° SE
Cosmos 2219 Rocket 2.2 21:50:50 10° NW 21:56:26 60° WSW 21:56:38 60° WSW
COSMOS 2487 4.4 21:58:46 24° NW 21:58:46 24° NW 22:01:08 10° N
Cosmos 1513 Rocket 4.5 21:58:00 59° SSW 21:59:21 86° W 22:05:50 10° N
Cosmos 2034 Rocket 4.0 21:59:08 55° SSE 22:00:26 70° E 22:06:43 10° NNE
Cosmos 783 Rocket 4.3 21:56:34 10° NNW 22:01:51 83° WSW 22:02:08 79° SSW
Cosmos 1072 Rocket 4.4 22:02:07 59° SSW 22:03:17 77° W 22:09:26 10° N
SL-16 R/B 3.7 22:01:10 19° ESE 22:05:05 38° ENE 22:10:46 10° N
Cosmos 1975 Rocket 3.5 22:01:18 10° NNW 22:05:17 56° WNW 22:05:17 56° WNW
Cosmos 1092 Rocket 4.4 21:59:55 10° N 22:06:05 56° ENE 22:08:07 39° SE
Cosmos 1503 Rocket 4.0 22:05:35 68° WSW 22:06:12 77° WNW 22:11:37 10° NNE
Cosmos 2322 Rocket 4.5 22:05:22 10° W 22:06:13 10° W 22:06:13 10° W
Okean 2 Rocket 3.4 22:08:00 56° E 22:08:00 56° E 22:12:15 10° NNE
CZ-2D R/B 3.7 22:07:42 10° NE 22:12:08 25° E 22:13:36 22° ESE
GEOS 3 Rocket 4.4 22:07:08 10° NE 22:12:11 39° ESE 22:12:12 39° ESE
Helios 1A 4.3 22:13:11 30° WNW 22:13:11 30° WNW 22:16:08 10° NNW
SL-16 R/B 3.7 22:07:11 10° NNW 22:12:19 33° NE 22:17:24 10° ESE
Landsat 4 4.4 22:11:10 10° N 22:14:13 51° NNW 22:14:13 51° NNW
Cosmos 1300 Rocket 3.8 22:15:24 60° ENE 22:15:24 60° ENE 22:19:24 10° NNE
Sich 1 Rocket 3.6 22:18:02 72° NW 22:18:02 72° NW 22:22:12 10° N
ERBS 4.4 22:16:44 10° NW 22:18:11 22° NW 22:18:11 22° NW
Cosmos 2360 Rocket 4.1 22:17:38 10° WNW 22:20:19 15° W 22:20:19 15° W
COSMOS 2428 3.2 22:17:19 10° NW 22:22:37 43° WSW 22:22:37 43° WSW
Okean 1 Rocket 4.5 22:22:26 27° E 22:22:50 27° E 22:26:31 10° NNE
ATLAS 3B R/B 3.5 22:21:13 19° W 22:25:42 45° NW 22:32:07 10° NE
PSLV R/B 3.9 22:21:23 10° N 22:25:58 61° WNW 22:26:13 60° W
Cosmos 2297 Rocket 2.5 22:34:19 47° SE 22:35:13 52° ESE 22:40:43 10° NE
Meteor 2-13 Rocket 4.4 22:30:50 10° N 22:36:58 82° E 22:38:49 48° SSE
Cosmos 1980 3.6 22:31:26 10° NNW 22:37:08 75° WSW 22:38:04 61° S
DNEPR-1 R/B 4.2 22:32:03 10° NW 22:38:05 70° NE 22:40:29 32° ESE
Cosmos 2219 3.2 22:37:35 55° SSE 22:38:31 64° ESE 22:44:05 10° NNE
Cosmos 2151 Rocket 3.4 22:39:14 84° ESE 22:39:16 84° E 22:43:41 10° N
SJ 16-02 3.0 22:41:00 22° ESE 22:41:34 23° E 22:45:01 10° NE
Cosmos 2333 Rocket 3.5 22:37:08 10° NW 22:41:19 25° W 22:41:19 25° W
Cosmos 1538 Rocket 3.8 22:37:51 10° NNW 22:43:03 85° WSW 22:43:52 64° S
Cosmos 1626 4.1 22:41:04 10° NNE 22:44:05 23° ENE 22:45:13 20° E
Timation 2 Rocket 3.8 22:43:45 52° SW 22:45:24 84° WNW 22:51:29 10° NNE
NOSS 0 Rocket 4.1 22:40:32 10° NW 22:46:32 50° WSW 22:47:13 47° SW
Cosmos 2237 Rocket 2.1 22:41:02 10° NNW 22:46:41 68° WSW 22:47:32 58° SSW
Lacrosse 4 Rocket 3.3 22:45:23 20° WNW 22:46:46 23° NW 22:50:11 10° NNE
UNK 4.2 22:46:05 42° SE 22:47:22 58° ENE 22:51:59 10° N
Cosmos 773 Rocket 4.2 22:43:28 10° NNW 22:48:25 50° WSW 22:48:25 50° WSW
Cosmos 1025 Rocket 3.4 22:44:31 10° NNW 22:48:18 52° WNW 22:48:18 52° WNW
Cosmos 2195 Rocket 4.4 22:46:48 10° NNW 22:53:07 79° W 22:55:07 47° S
FALCON 9 DEB 3.9 22:56:27 52° N 22:56:32 52° NNE 22:59:56 10° E
Cosmos 1766 4.1 22:57:04 40° ESE 22:57:18 41° E 23:00:59 10° NNE
Spot 1 3.9 23:00:25 73° W 23:00:25 73° W 23:04:26 10° NNW
In-Cosmos 22 4.3 22:55:04 10° NNW 23:00:34 57° W 23:01:27 51° SW
Cosmos 2026 Rocket 3.9 23:00:41 10° NNW 23:06:45 73° W 23:08:44 45° SSW
Cosmos 2279 Rocket 4.2 23:04:12 35° SSE 23:06:46 64° E 23:12:54 10° NNE
Resurs 1-4 Rocket 2.2 23:01:32 10° NNE 23:06:49 66° ESE 23:08:21 45° SSE
USA 267 4.0 23:01:49 10° E 23:08:07 53° NNE 23:14:26 10° NW
Cosmos 1536 Rocket 4.1 23:04:07 10° NNW 23:07:59 43° W 23:07:59 43° W
Cosmos 1634 Rocket 4.0 23:12:14 43° SSW 23:14:23 75° W 23:20:38 10° N
CZ-4C R/B 3.1 23:19:58 68° NW 23:19:58 68° NW 23:23:11 10° NNW
Helios 1B rocket 3.9 23:18:02 10° N 23:21:19 24° WNW 23:21:48 23° WNW
Cosmos 2227 Rocket 2.1 23:22:42 44° SW 23:24:35 81° WNW 23:30:18 10° NNE
Cosmos 2344 4.4 23:15:07 10° NW 23:24:36 62° WSW 23:37:44 10° SSE
Cosmos 1680 Rocket 3.5 23:20:16 10° NNW 23:25:33 79° ENE 23:28:50 23° SSE
Cosmos 2142 Rocket 4.5 23:24:18 38° SSW 23:26:55 81° W 23:33:23 10° N
Cosmos 1805 3.1 23:27:20 70° WSW 23:27:36 74° W 23:31:30 10° N
Cosmos 1674 3.3 23:25:37 10° NNW 23:28:43 41° WNW 23:28:43 41° WNW
Cosmos 1607 3.9 23:24:17 10° NW 23:30:45 76° SW 23:37:12 10° SSE
Meteor 1-15 Rocket 4.3 23:30:31 40° SW 23:32:25 63° WNW 23:38:00 10° N
SL-14 R/B 3.3 23:30:04 10° N 23:34:01 76° E 23:35:00 48° SSE
Cosmos 1733 3.0 23:37:11 66° SSW 23:37:39 81° W 23:41:31 10° N
USA 229 DEB 4.4 23:34:40 24° SSE 23:37:54 40° ESE 23:44:09 10° NE
USA 229 4.4 23:34:45 24° SSE 23:37:59 39° ESE 23:44:12 10° NE
CZ-4B R/B 3.5 23:36:13 10° NNE 23:40:59 68° ESE 23:42:55 35° S
IRS-1D 3.8 23:37:06 10° NNE 23:42:08 63° ESE 23:44:38 30° S
Cosmos 2082 3.6 23:44:06 36° SSW 23:46:29 88° ESE 23:52:09 10° NNE
TIMED 4.4 23:42:10 10° NNW 23:46:32 73° WSW 23:48:10 37° S
Cosmos 1726 4.3 23:45:03 12° SE 23:47:31 21° E 23:50:22 10° NE
SL-16 R/B 2.9 23:46:15 33° SSW 23:48:35 46° W 23:54:36 10° NNW
Cosmos 158 Rocket 4.0 23:43:52 10° NNW 23:49:13 69° WSW 23:52:22 25° S
GEOS 3 Rocket 4.2 23:45:03 10° NE 23:50:19 54° NW 23:53:18 25° WSW
ADEOS II 2.3 23:45:19 10° NNE 23:50:34 65° ESE 23:53:32 26° S
CZ-2D R/B 2.4 23:47:09 10° N 23:52:32 57° WNW 23:54:55 32° SW
